Back to catalog

SCOUT B DEB

AlivePO
NORAD 3392·DEBRIS·🇺🇸 United States

Launched Aug 8, 1968 from Vandenberg Space Force Base

Loading…

Next Passes (next 24 hours)

TLE

FreshSource: Space-Track

Epoch: Sep 14, 2026, 14:14 UTC

1 03392U 68066H   26257.59365431  .00005199  00000-0  14348-2 0  9997
2 03392  80.6585 127.4286 0326705 305.2213  51.8774 14.19678568746048

Track SCOUT B DEB in real time with AllMySat

Download on the App Store